Location: Beulah
(33.1426°N, 83.0557°W)
Time: 18:58:45
(UTC+00:00)

Envisat - Pass Details

Date: 01 December 2021
Orbit: 764 x 766 km, 98.2° (Epoch: 28 January)

Event Time Altitude Azimuth Distance (km) Brightness Sun altitude
Rises 10:47:00 0° 7° (N) 3,237 6.2 -18.6°
Reaches altitude 10° 10:49:20 10° 3° (N) 2,307 5.4 -18.2°
Maximum altitude 10:54:19 58° 286° (WNW) 891 3.0 -17.2°
Drops below altitude 10° 10:59:16 10° 208° (SSW) 2,293 5.3 -16.2°
Sets 11:01:35 0° 204° (SSW) 3,215 6.1 -15.7°
